Change the Weather History Date:

Sunday, January 6, 2013

  Actual Average Record
Temperature  
Mean Temperature 37 °F 37 °F  
Max Temperature 49 °F 47 °F 74 °F (2008)
Min Temperature 24 °F 27 °F -2 °F (2014)
Degree Days  
Heating Degree Days 28 28  
Month to date heating degree days 190 168  
Since 1 July heating degree days 1442 1596  
Moisture  
Dew Point 21 °F    
Average Humidity 57    
Maximum Humidity 82    
Minimum Humidity 31    
Precipitation  
Precipitation 0.00 in 0.05 in 0.93 in (1910)
Month to date precipitation T 0.33  
Year to date precipitation T 0.33  
Sea Level Pressure  
Sea Level Pressure 30.36 in    
Wind  
Wind Speed 5 mph (NNW)    
Max Wind Speed 13 mph    
Max Gust Speed 18 mph    
Visibility 10 miles    
Events      
T = Trace of Precipitation, MM = Missing Value Source: NWS Daily Summary

Daily Weather History Graph

Daily Weather History Graph

Search for Another Location

Airport or City:

Trip Planner

Search our weather history database for the weather conditions in past years. The results will help you decide how hot, cold, wet, or windy it might be!

Date:

Astronomy

Jan. 06, 2013 Rise Set
Actual Time 7:35 AM CST 5:24 PM CST
Civil Twilight 7:06 AM CST 5:52 PM CST
Nautical Twilight 6:34 AM CST 6:24 PM CST
Astronomical Twilight 6:03 AM CST 6:55 PM CST
Moon 1:54 AM CST (1/6) 12:49 PM CST (1/6)
Length of Visible Light 10h 45m
Length of Day
9h 49m
Waning Crescent, 33% of the Moon is Illuminated
Jan 6
Waning Crescent
Jan 11
New
Jan 18
First Quarter
Jan 26
Full
Feb 3
Last Quarter

Hourly Weather History & Observations

Time (CST) Temp. Windchill Dew Point Humidity Pressure Visibility Wind Dir Wind Speed Gust Speed Precip Events Conditions
12:53 AM 30.9 °F 27.5 °F 25.0 °F 79% 30.30 in 10.0 mi West 3.5 mph - N/A   Clear
1:53 AM 28.0 °F 20.8 °F 23.0 °F 81% 30.30 in 10.0 mi West 6.9 mph - N/A   Clear
2:53 AM 30.0 °F 24.1 °F 23.0 °F 75% 30.32 in 10.0 mi West 5.8 mph - N/A   Clear
3:53 AM 28.0 °F 24.2 °F 21.9 °F 78% 30.33 in 10.0 mi WNW 3.5 mph - N/A   Clear
4:53 AM 28.0 °F 22.8 °F 21.9 °F 78% 30.34 in 10.0 mi West 4.6 mph - N/A   Clear
5:53 AM 30.0 °F 26.5 °F 21.9 °F 72% 30.35 in 10.0 mi West 3.5 mph - N/A   Clear
6:53 AM 28.0 °F 22.8 °F 21.0 °F 75% 30.38 in 10.0 mi West 4.6 mph - N/A   Clear
7:53 AM 25.0 °F 18.1 °F 19.9 °F 81% 30.40 in 10.0 mi NW 5.8 mph - N/A   Clear
8:53 AM 33.1 °F 27.7 °F 25.0 °F 72% 30.41 in 10.0 mi NW 5.8 mph - N/A   Clear
9:53 AM 36.0 °F 28.5 °F 24.1 °F 62% 30.43 in 10.0 mi NNW 10.4 mph - N/A   Clear
10:53 AM 39.0 °F 32.8 °F 23.0 °F 53% 30.44 in 10.0 mi NNW 9.2 mph - N/A   Clear
11:53 AM 43.0 °F 37.2 °F 21.9 °F 43% 30.41 in 10.0 mi NNW 10.4 mph - N/A   Clear
12:53 PM 46.0 °F 42.5 °F 21.0 °F 37% 30.38 in 10.0 mi NNE 6.9 mph - N/A   Clear
1:53 PM 48.0 °F - 19.9 °F 33% 30.36 in 10.0 mi North 6.9 mph - N/A   Clear
2:53 PM 48.2 °F - 19.4 °F 32% 30.34 in 10.0 mi NE 3.5 mph - N/A   Clear
3:53 PM 48.0 °F - 21.0 °F 34% 30.35 in 10.0 mi East 3.5 mph - N/A   Clear
4:53 PM 45.0 °F 42.6 °F 21.0 °F 39% 30.35 in 10.0 mi East 4.6 mph - N/A   Clear
5:53 PM 42.1 °F 40.2 °F 19.9 °F 41% 30.36 in 10.0 mi ESE 3.5 mph - N/A   Clear
6:53 PM 39.0 °F 36.8 °F 21.0 °F 49% 30.36 in 10.0 mi ESE 3.5 mph - N/A   Clear
7:53 PM 34.0 °F 28.8 °F 21.0 °F 59% 30.36 in 10.0 mi SE 5.8 mph - N/A   Clear
8:53 PM 33.8 °F 30.8 °F 21.2 °F 60% 30.34 in 10.0 mi SE 3.5 mph - N/A   Clear
9:53 PM 34.0 °F - 21.0 °F 59% 30.36 in 10.0 mi Calm Calm - N/A   Clear
10:53 PM 30.9 °F 27.5 °F 19.9 °F 64% 30.35 in 10.0 mi East 3.5 mph - N/A   Clear
11:53 PM 28.9 °F - 19.9 °F 69% 30.35 in 10.0 mi Calm Calm - N/A   Clear